Regional Weather Roundup
Issued by NWS Little Rock, AR

Home | Current Version | Previous Version | Graphics & Text | Print | Product List | Glossary On
Versions: 1 2 3 4 5 6 7 8 9 10 11 12 13 14 15 16 17 18 19 20 21 22 23 24 25 26 27 28 29 30 31 32 33 34 35 36 37 38 39 40 41 42 43 44 45 46 47 48 49 50
000
ASUS44 KLZK 042205
RWRLZK

WEATHER ROUNDUP FOR ARKANSAS
NATIONAL WEATHER SERVICE LITTLE ROCK AR
500 PM CDT TUE AUG 04 2015

NOTE: "FAIR" INDICATES FEW OR NO CLOUDS BELOW 12,000 FEET WITH NO
SIGNIFICANT WEATHER AND/OR OBSTRUCTIONS TO VISIBILITY.

ARZ001-003-010-029-042300-
NORTHWEST ARKANSAS

CITY           SKY/WX    TMP DP  RH WIND       PRES   REMARKS
FAYETTEVILLE   CLOUDY    82  71  69 CALM      29.99F HX  86
FORT SMITH     PTSUNNY   88  67  49 E3        29.93F HX  91
HARRISON       CLOUDY    83  72  69 SW5       30.00F HX  88
BENTONVILLE    CLOUDY    81  64  57 N3        30.00F
ROGERS         CLOUDY    81  69  67 NW6       30.00F
SILOAM SPGS    CLOUDY    81  66  61 NE3       29.98F
HIGHFILL       CLOUDY    83  69  62 N5        29.99F HX  86
SPRINGDALE     PTSUNNY   82  68  61 NW5       30.01F HX  85
$$

ARZ004-005-016-042300-
NORTH CENTRAL ARKANSAS

CITY           SKY/WX    TMP DP  RH WIND       PRES   REMARKS
BATESVILLE     CLOUDY    91  68  46 SE5       29.94F HX  95
FLIPPIN        CLOUDY    90  66  45 CALM      29.95F HX  92
MTN HOME       CLOUDY    86  71  60 S3        29.97F HX  91
$$

ARZ040-041-042300-
WEST CENTRAL ARKANSAS

CITY           SKY/WX    TMP DP  RH WIND       PRES   REMARKS
MENA           CLOUDY    84  77  79 N3        29.97F HX  94
MOUNT IDA      CLOUDY    85  67  54 CALM      29.95S HX  87
$$

ARZ009-017-025-026-028-042300-
NORTHEAST ARKANSAS

CITY           SKY/WX    TMP DP  RH WIND       PRES   REMARKS
JONESBORO      PTSUNNY   89  70  53 S8        29.94F HX  94
NEWPORT        PTSUNNY   93  72  50 VRB6      29.95F HX 100
WALNUT RIDGE   CLOUDY    93  66  40 S10       29.93F HX  96
BLYTHEVILLE    PTSUNNY   93  74  53 VRB3      29.95F HX 103
$$

ARZ022-023-033-042-044-042300-
CENTRAL ARKANSAS

CITY           SKY/WX    TMP DP  RH WIND       PRES   REMARKS
LITTLE ROCK    CLOUDY    94  67  41 S6        29.93F HX  97
N LITTLE ROCK  PTSUNNY   93  69  44 S9        29.93F HX  98
JACKSONVILLE   CLOUDY    94  67  40 SE9       29.93F HX  98
SEARCY         PTSUNNY   94  71  47 SW6       29.94  HX 101
HOT SPRINGS    CLOUDY    94  64  37 SW9       29.94S HX  95
RUSSELLVILLE   CLOUDY    82  68  62 SW10G20   29.96R HX  85
$$

ARZ036-042300-
EAST ARKANSAS

CITY           SKY/WX    TMP DP  RH WIND       PRES   REMARKS
WEST MEMPHIS   MOSUNNY   94  67  41 S6        29.94F HX  97
$$

ARZ050-053-066-070-073-042300-
SOUTHWEST ARKANSAS

CITY           SKY/WX    TMP DP  RH WIND       PRES   REMARKS
ARKADELPHIA    FAIR      95  72  47 CALM      29.93F HX 103
CAMDEN         MOSUNNY   97  63  32 SW3       29.92F HX  98
TEXARKANA      CLOUDY    95  66  38 S7        29.93S HX  98
EL DORADO      MOSUNNY   96  66  37 S5        29.93F HX  99
DE QUEEN       CLOUDY    91  71  51 S5        29.91F HX  97
$$

ARZ056-057-069-042300-
SOUTHEAST ARKANSAS

CITY           SKY/WX    TMP DP  RH WIND       PRES   REMARKS
PINE BLUFF     MOSUNNY   97  66  36 SE8       29.93F HX 100
STUTTGART      MOSUNNY   95  66  38 MISG      29.94S HX  98
MONTICELLO     CLOUDY    93  66  40 S5        29.93F HX  96

$$





USA.gov is the U.S. government's official web portal to all federal, state and local government web resources and services.